Location: Unspecified
(0.0000°N, 0.0000°E)
Time: 16:24:06
(UTC+00:00)

Courier 1B Rocket - Pass Details

Date: 26 November 2019
Orbit: 920 x 1202 km, 28.2° (Epoch: 12 December)

Event Time Altitude Azimuth Distance (km) Brightness Sun altitude
Rises 11:03:31 0° 289° (WNW) 3,544 7.8 66.5°
Reaches altitude 10° 11:08:35 10° 324° (NW) 2,619 7.2 67.0°
Maximum altitude 11:10:11 11° 339° (NNW) 2,561 7.1 67.2°
Drops below altitude 10° 11:11:47 10° 354° (N) 2,643 7.2 67.4°
Sets 11:17:01 0° 29° (NNE) 3,646 7.8 67.8°
